Delhi Cantonment, India

3:49 AM IST on February 24, 2017 (GMT +0530)
Indira Gandhi International

Weather History for VIDP - January, 2013

Change the Weather History Date:

Tuesday, January 1, 2013

  Actual Average Record
Temperature  
Mean Temperature 49 °F -  
Max Temperature 59 °F 65 °F 74 °F (2017)
Min Temperature 39 °F 44 °F 46 °F (2016)
Degree Days  
Heating Degree Days 16    
Moisture  
Dew Point 45 °F    
Average Humidity 95    
Maximum Humidity 100    
Minimum Humidity 67    
Precipitation  
Precipitation 0.00 in - - ()
Sea Level Pressure  
Sea Level Pressure 29.95 in    
Wind  
Wind Speed 3 mph ()    
Max Wind Speed 7 mph    
Max Gust Speed -    
Visibility 0.3 miles    
Events Fog    
Averages and records for this station are not official NWS values.
T = Trace of Precipitation, MM = Missing Value Source: Averaged Metar Reports

Daily Weather History Graph

Daily Weather History Graph

Search for Another Location

Airport or City:

Trip Planner

Search our weather history database for the weather conditions in past years. The results will help you decide how hot, cold, wet, or windy it might be!

Date:

Astronomy

Jan. 01, 2013 Rise Set
Actual Time 7:14 AM IST 5:36 PM IST
Civil Twilight 6:48 AM IST 6:01 PM IST
Nautical Twilight 6:19 AM IST 6:31 PM IST
Astronomical Twilight 5:50 AM IST 7:00 PM IST
Moon 9:18 PM IST (1/1) 9:30 AM IST (1/1)
Length of Visible Light 11h 13m
Length of Day
10h 21m
Waning Gibbous, 86% of the Moon is Illuminated
Jan 1
Waning Gibbous
Jan 5
Last Quarter
Jan 12
New
Jan 19
First Quarter
Jan 27
Full

Hourly Weather History & Observations

Time (IST) Temp. Windchill Dew Point Humidity Pressure Visibility Wind Dir Wind Speed Gust Speed Precip Events Conditions
12:00 AM 42.8 °F 41.1 °F 42.8 °F 100% 29.92 in 0.2 mi WSW 3.5 mph - N/A Fog Fog
12:30 AM 42.8 °F 41.1 °F 42.8 °F 100% 29.92 in 0.2 mi WSW 3.5 mph - N/A Fog Fog
1:00 AM 41.0 °F 39.0 °F 41.0 °F 100% 29.92 in 0.2 mi WSW 3.5 mph - N/A   Unknown
1:30 AM 41.0 °F 38.0 °F 41.0 °F 100% 29.92 in 0.2 mi WSW 4.6 mph - N/A Fog Fog
2:00 AM 41.0 °F 38.0 °F 41.0 °F 100% 29.92 in 0.1 mi WSW 4.6 mph - N/A Fog Fog
2:30 AM 39.2 °F 35.0 °F 39.2 °F 100% 29.92 in - West 5.8 mph - N/A Fog Fog
3:00 AM 39.2 °F 37.0 °F 39.2 °F 100% 29.92 in - West 3.5 mph - N/A Fog Fog
3:30 AM 41.0 °F 39.0 °F 41.0 °F 100% 29.89 in - West 3.5 mph - N/A Fog Fog
4:00 AM 41.0 °F 39.0 °F 41.0 °F 100% 29.89 in - West 3.5 mph - N/A Fog Fog
4:30 AM 41.0 °F 38.0 °F 41.0 °F 100% 29.89 in - WSW 4.6 mph - N/A Fog Fog
5:00 AM 39.2 °F 35.9 °F 39.2 °F 100% 29.89 in - SW 4.6 mph - N/A Fog Fog
5:30 AM 41.0 °F 38.0 °F 41.0 °F 100% 29.92 in 0.0 mi West 4.6 mph - N/A Fog Fog
6:00 AM 41.0 °F 38.0 °F 41.0 °F 100% 29.92 in 0.0 mi West 4.6 mph - N/A Fog Fog
6:30 AM 41.0 °F 37.1 °F 41.0 °F 100% 29.92 in 0.0 mi West 5.8 mph - N/A Fog Fog
7:00 AM 41.0 °F 37.1 °F 41.0 °F 100% 29.95 in 0.0 mi West 5.8 mph - N/A Fog Fog
7:30 AM 42.8 °F 41.1 °F 42.8 °F 100% 29.98 in 0.0 mi West 3.5 mph - N/A Fog Fog
8:00 AM 42.8 °F - 42.8 °F 100% 29.98 in 0.0 mi Calm Calm - N/A Fog Fog
8:30 AM 42.8 °F - 42.8 °F 100% 29.98 in 0.0 mi Calm Calm - N/A Fog Fog
9:00 AM 42.8 °F - 42.8 °F 100% 29.98 in 0.1 mi North 2.3 mph - N/A Fog Fog
9:30 AM 42.8 °F - 42.8 °F 100% 30.04 in 0.1 mi Calm Calm - N/A Fog Fog
10:00 AM 42.8 °F - 42.8 °F 100% 30.04 in 0.2 mi Calm Calm - N/A Fog Fog
10:30 AM 44.6 °F - 44.6 °F 100% 30.04 in 0.3 mi Calm Calm - N/A Fog Fog
11:00 AM 44.6 °F 43.1 °F 44.6 °F 100% 30.04 in 0.4 mi NE 3.5 mph - N/A Fog Shallow Fog
12:30 PM 51.8 °F - 51.8 °F 100% 30.01 in 0.6 mi NE 4.6 mph - N/A   Scattered Clouds
1:00 PM 55.4 °F - 53.6 °F 94% 30.01 in 0.7 mi NNE 4.6 mph - N/A   Scattered Clouds
1:30 PM 57.2 °F - 53.6 °F 88% 29.98 in 0.7 mi NNE 2.3 mph - N/A   Scattered Clouds
2:00 PM 59.0 °F - 53.6 °F 82% 29.95 in 0.6 mi NW 4.6 mph - N/A   Scattered Clouds
2:30 PM 59.0 °F - 50.0 °F 72% 29.95 in 0.6 mi NNE 4.6 mph - N/A   Smoke
3:30 PM 59.0 °F - 50.0 °F 72% 29.95 in 0.5 mi North 6.9 mph - N/A   Smoke
4:00 PM 59.0 °F - 48.2 °F 67% 29.92 in 0.6 mi NNE 6.9 mph - N/A   Smoke
4:30 PM 57.2 °F - 48.2 °F 72% 29.92 in 0.7 mi NNE 5.8 mph - N/A   Smoke
5:00 PM 57.2 °F - 48.2 °F 72% 29.92 in 0.9 mi NNE 5.8 mph - N/A   Smoke
6:00 PM 53.6 °F - 50.0 °F 88% 29.95 in 0.9 mi ENE 4.6 mph - N/A   Partly Cloudy
6:30 PM 53.6 °F - 50.0 °F 88% 29.95 in 0.8 mi ENE 3.5 mph - N/A   Scattered Clouds
7:00 PM 51.8 °F - 51.8 °F 100% 29.95 in 0.6 mi SE 4.6 mph - N/A   Scattered Clouds
8:00 PM 50.0 °F - 48.2 °F 94% 29.95 in 0.4 mi SE 3.5 mph - N/A Fog Shallow Fog
8:30 PM 50.0 °F - 48.2 °F 94% 29.95 in 0.3 mi Calm Calm - N/A Fog Shallow Fog
9:00 PM 50.0 °F - 50.0 °F 100% 29.98 in 0.3 mi Calm Calm - N/A Fog Shallow Fog
9:30 PM 50.0 °F - 50.0 °F 100% 29.98 in 0.3 mi Calm Calm - N/A Fog Shallow Fog
10:00 PM 46.4 °F - 46.4 °F 100% 29.98 in 0.2 mi Calm Calm - N/A Fog Fog
10:30 PM 46.4 °F - 46.4 °F 100% 29.98 in 0.1 mi Calm Calm - N/A Fog Fog
11:30 PM 44.6 °F - 44.6 °F 100% 29.98 in 0.1 mi Calm Calm - N/A Fog Fog